DW1850 Weather Reports


Display with metric or nautical units.
time (UTC)temp
F
wind
direction
speed
MPH
gust
MPH
rain 1hr
in
rain 24hr
in
rain mn
in
humidity
%
barometer
mb
20260902152951 87 221 0.0 10.0 0.00 0.00 0.00 64 1012.7
20260902145950 85 210 1.0 12.0 0.00 0.00 0.00 65 1012.6
20260902142950 84 156 1.0 9.0 0.00 0.00 0.00 69 1012.6
20260902135949 82 119 4.0 7.0 0.00 0.00 0.00 74 1012.5
20260902132948 79 105 0.0 0.0 0.00 0.00 0.00 82 1012.4
20260902125947 77 105 0.0 0.0 0.00 0.00 0.00 83 1011.9
20260902122946 76 105 0.0 0.0 0.00 0.00 0.00 83 1011.9
20260902115946 76 105 0.0 0.0 0.00 0.00 0.00 82 1011.6
20260902112945 75 105 0.0 0.0 0.00 0.00 0.00 83 1011.3
20260902102944 76 105 0.0 0.0 0.00 0.00 0.00 82 1011.7
20260902092942 79 105 0.0 0.0 0.00 0.00 0.00 78 1011.6
20260902085941 80 105 0.0 0.0 0.00 0.00 0.00 77 1012.0
20260902082940 80 105 0.0 0.0 0.00 0.00 0.00 75 1011.8
20260902080009 81 105 0.0 0.0 0.00 0.00 0.00 75 1011.9
20260902065938 83 105 0.0 0.0 0.00 0.00 0.00 73 1012.3
20260902060007 84 105 0.0 5.0 0.00 0.00 0.00 71 1012.3
20260902053005 85 105 0.0 6.0 0.00 0.00 0.00 69 1012.1
20260902050008 86 105 6.0 7.0 0.00 0.00 0.00 67 1012.2
20260902040003 87 101 0.0 6.0 0.00 0.00 0.00 62 1012.0
20260902033003 88 101 0.0 6.0 0.00 0.00 0.00 61 1011.5
20260902023001 90 99 0.0 8.0 0.00 0.00 0.00 56 1010.6
20260902020000 91 98 0.0 9.0 0.00 0.00 0.00 51 1010.1
20260902013000 93 96 0.0 9.0 0.00 0.00 0.00 48 1009.7
20260902005959 94 95 0.0 0.0 0.00 0.00 0.00 47 1009.3
20260902002958 95 96 0.0 7.0 0.00 0.00 0.00 44 1009.5
20260901235957 96 94 2.0 9.0 0.00 0.00 0.00 44 1009.7
20260901232956 99 101 0.0 9.0 0.00 0.00 0.00 42 1009.5
20260901225956 99 92 0.0 10.0 0.00 0.00 0.00 42 1009.5
20260901222955 99 81 0.0 8.0 0.00 0.00 0.00 43 1009.7
20260901215954 101 79 2.0 8.0 0.00 0.00 0.00 41 1009.8
20260901212953 101 81 0.0 10.0 0.00 0.00 0.00 39 1009.9
20260901205953 100 103 2.0 8.0 0.00 0.00 0.00 41 1010.1
20260901202952 100 105 0.0 13.0 0.00 0.00 0.00 40 1010.6
20260901195951 102 101 0.0 9.0 0.00 0.00 0.00 40 1011.1
20260901192950 101 104 0.0 10.0 0.00 0.00 0.00 42 1011.5
20260901185950 98 123 1.0 10.0 0.00 0.00 0.00 44 1011.8
20260901172947 95 128 0.0 9.0 0.00 0.00 0.00 49 1013.2
20260901165947 94 156 0.0 7.0 0.00 0.00 0.00 54 1013.7
20260901162946 92 156 0.0 2.0 0.00 0.00 0.00 57 1013.8